Location: Alafon
(8.4500°N, 4.2333°E)
Time: 22:41:51
(UTC+00:00)

Vanguard 3 - All Passes

Search period start: 28 July 2021 00:00
Search period end: 07 August 2021 00:00
Orbit: 508 x 3261 km, 33.4° (Epoch: 28 July)

Date Brightness Start Highest point End Pass type
(mag) Time Alt. Az. Time Alt. Az. Time Alt. Az.
28 Jul - 00:31:13 10° NW 00:47:53 52° NNE 00:57:51 10° E visible
28 Jul - 02:49:27 10° WNW 03:02:19 59° SW 03:09:26 10° SE visible
28 Jul - 14:07:11 10° SSW 14:15:09 41° SE 14:28:29 10° ENE daylight
28 Jul - 16:17:52 10° WSW 16:29:12 71° NNW 16:47:51 10° NE daylight
28 Jul - 18:33:24 10° W 18:47:46 38° NNW 19:05:37 10° NE visible
28 Jul - 20:53:28 10° NW 21:09:39 30° N 21:24:28 10° ENE visible
28 Jul - 23:13:10 10° NW 23:30:34 40° NNE 23:42:30 10° E visible
29 Jul - 01:31:14 10° NW 01:47:19 85° NNE 01:56:11 10° ESE visible
29 Jul - 03:51:26 10° W 03:59:37 24° SW 04:05:08 10° S visible
29 Jul - 12:55:47 10° S 13:00:55 19° SE 13:08:00 10° E daylight
29 Jul - 15:03:50 10° SW 15:13:08 81° SE 15:29:44 10° ENE daylight
29 Jul - 17:16:58 10° W 17:29:29 47° NNW 17:47:48 10° NE daylight
29 Jul - 19:35:01 10° WNW 19:50:06 31° N 20:06:27 10° NE visible
29 Jul - 21:54:58 10° NW 22:12:10 34° NNE 22:25:58 10° ENE visible
30 Jul - 00:13:15 10° NW 00:31:08 60° NNE 00:41:57 10° ESE visible
30 Jul - 02:31:58 10° WNW 02:45:30 51° SW 02:53:13 10° SSE visible
30 Jul - 13:50:50 10° SSW 13:58:14 47° SE 14:11:06 10° ENE daylight
30 Jul - 16:01:49 10° WSW 16:12:17 62° NNW 16:29:55 10° NE daylight
30 Jul - 18:17:28 10° WNW 18:30:57 35° NNW 18:48:12 10° NE visible
30 Jul - 20:36:46 10° NW 20:52:55 31° N 21:08:15 10° ENE visible
30 Jul - 22:55:24 10° NW 23:13:46 46° NNE 23:26:37 10° E visible
31 Jul - 01:13:23 10° WNW 01:30:27 85° SW 01:40:03 10° SE visible
31 Jul - 03:34:43 10° W 03:42:52 21° SW 03:48:34 10° S visible
31 Jul - 12:39:09 10° S 12:44:12 21° SE 12:51:27 10° E daylight
31 Jul - 14:47:44 10° SW 14:56:16 89° NNW 15:11:55 10° NE daylight
31 Jul - 17:01:06 10° W 17:12:42 41° NNW 17:29:58 10° NE daylight
31 Jul - 19:18:51 10° WNW 19:33:23 30° N 19:49:39 10° NE visible
31 Jul - 21:37:38 10° NW 21:55:21 37° NNE 22:10:00 10° ENE visible
31 Jul - 23:55:19 10° NW 00:14:12 68° NNE 00:25:53 10° ESE visible
01 Aug - 02:14:30 10° WNW 02:28:33 45° SW 02:36:52 10° SSE visible
01 Aug - 13:34:35 10° SW 13:41:26 54° SE 13:53:42 10° ENE daylight
01 Aug - 15:45:54 10° W 15:55:33 53° NNW 16:11:57 10° NE daylight
01 Aug - 18:01:38 10° WNW 18:14:16 32° N 18:30:46 10° NE visible
01 Aug - 20:20:01 10° NW 20:36:09 32° N 20:51:59 10° ENE visible
01 Aug - 22:37:39 10° NW 22:56:47 51° NNE 23:10:35 10° E visible
02 Aug - 00:55:35 10° WNW 01:13:24 75° SW 01:23:49 10° SE visible
02 Aug - 03:18:08 10° W 03:26:05 19° SW 03:31:52 10° S visible
02 Aug - 12:22:38 10° S 12:27:32 24° SE 12:34:49 10° E daylight
02 Aug - 14:31:43 10° WSW 14:39:35 77° NNW 14:54:06 10° NE daylight
02 Aug - 16:45:22 10° WNW 16:56:04 36° NNW 17:12:07 10° NE daylight
02 Aug - 19:02:42 10° NW 19:16:42 29° N 19:32:52 10° ENE visible
02 Aug - 21:20:19 10° NW 21:38:23 40° NNE 21:53:54 10° E visible
02 Aug - 23:37:28 10° NW 23:57:04 77° NNE 00:09:42 10° ESE visible
03 Aug - 01:57:07 10° WNW 02:11:31 40° SW 02:20:25 10° SSE visible
03 Aug - 13:18:27 10° SW 13:24:47 64° SE 13:36:17 10° ENE daylight
03 Aug - 15:30:08 10° W 15:39:00 45° NNW 15:53:58 10° NE daylight
03 Aug - 17:45:53 10° WNW 17:57:40 29° N 18:13:22 10° NE daylight
03 Aug - 20:03:16 10° NW 20:19:19 33° NNE 20:35:41 10° ENE visible
03 Aug - 22:19:58 10° NW 22:39:38 57° NNE 22:54:24 10° ESE visible
04 Aug - 00:37:51 10° WNW 00:56:11 67° SW 01:07:26 10° SE visible
04 Aug - 03:01:41 10° W 03:09:15 17° SW 03:15:01 10° S night (unlit)
04 Aug - 12:06:14 10° SSW 12:10:56 28° SE 12:18:07 10° E daylight
04 Aug - 14:15:51 10° WSW 14:23:04 64° NNW 14:36:17 10° NE daylight
04 Aug - 16:29:46 10° WNW 16:39:35 32° NNW 16:54:17 10° NE daylight
04 Aug - 18:46:32 10° NW 19:00:02 29° N 19:16:07 10° ENE visible
04 Aug - 21:03:01 10° NW 21:21:17 44° NNE 21:37:41 10° E visible
04 Aug - 23:19:41 10° NW 23:39:47 85° NE 23:53:20 10° ESE visible
05 Aug - 01:39:49 10° WNW 01:54:23 36° SW 02:03:52 10° SSE visible
05 Aug - 13:02:25 10° SW 13:08:15 77° SE 13:18:53 10° ENE daylight
05 Aug - 15:14:31 10° W 15:22:36 38° NNW 15:36:00 10° NE daylight
05 Aug - 17:30:10 10° NW 17:41:11 27° N 17:56:01 10° NE daylight
05 Aug - 19:46:31 10° NW 20:02:23 35° NNE 20:19:17 10° ENE visible
05 Aug - 22:02:23 10° NW 22:22:18 64° NNE 22:38:03 10° ESE visible
06 Aug - 00:20:13 10° WNW 00:38:51 60° SW 00:50:56 10° SE visible
06 Aug - 02:45:29 10° WSW 02:52:26 15° SW 02:57:59 10° SSW night (unlit)
06 Aug - 11:49:55 10° SSW 11:54:25 33° SE 12:01:25 10° ENE daylight
06 Aug - 14:00:06 10° WSW 14:06:42 52° NNW 14:18:30 10° NE daylight
06 Aug - 16:14:18 10° WNW 16:23:13 28° N 16:36:27 10° NE daylight
06 Aug - 18:30:22 10° NW 18:43:22 29° N 18:59:20 10° ENE visible
06 Aug - 20:45:47 10° NW 21:04:04 48° NNE 21:21:17 10° E visible
06 Aug - 23:02:01 10° NW 23:22:19 87° SW 23:36:51 10° SE visible
